TimeCST,TemperatureF,Dew PointF,Humidity,Sea Level PressureIn,VisibilityMPH,Wind Direction,Wind SpeedMPH,Gust SpeedMPH,PrecipitationIn,Events,Conditions,WindDirDegrees,DateUTC
12:23 AM,60.8,60.8,100,30.15,1.5,Calm,Calm,-,N/A,,Clear,0,2013-01-12 06:23:00
12:25 AM,60.8,60.8,100,30.14,0.8,Calm,Calm,-,N/A,,Mist,0,2013-01-12 06:25:00
12:53 AM,59.0,57.9,96,30.14,0.5,Calm,Calm,-,N/A,Fog,Fog,0,2013-01-12 06:53:00
12:58 AM,59.0,59.0,100,30.15,1.5,Calm,Calm,-,N/A,,Scattered Clouds,0,2013-01-12 06:58:00
1:00 AM,59.0,59.0,100,30.15,4.0,Calm,Calm,-,N/A,,Scattered Clouds,0,2013-01-12 07:00:00
1:34 AM,59.0,57.2,94,30.15,8.0,SSE,3.5,-,N/A,,Unknown,160,2013-01-12 07:34:00
1:53 AM,61.0,61.0,100,30.14,8.0,SSE,4.6,-,N/A,,Clear,150,2013-01-12 07:53:00
2:53 AM,61.0,61.0,100,30.13,7.0,Calm,Calm,-,N/A,,Partly Cloudy,0,2013-01-12 08:53:00
3:00 AM,60.8,60.8,100,30.14,2.0,Calm,Calm,-,N/A,,Mostly Cloudy,0,2013-01-12 09:00:00
3:05 AM,59.0,59.0,100,30.13,0.8,Calm,Calm,-,N/A,,Mostly Cloudy,0,2013-01-12 09:05:00
3:53 AM,60.1,60.1,100,30.12,0.2,SE,3.5,-,N/A,Fog,Fog,140,2013-01-12 09:53:00
4:41 AM,60.8,60.8,100,30.11,1.2,SSE,4.6,-,N/A,,Overcast,150,2013-01-12 10:41:00
4:53 AM,61.0,61.0,100,30.12,2.5,SSE,3.5,-,N/A,,Overcast,150,2013-01-12 10:53:00
5:02 AM,60.8,60.8,100,30.12,4.0,SSE,4.6,-,N/A,,Overcast,160,2013-01-12 11:02:00
5:53 AM,61.0,61.0,100,30.13,6.0,SSE,3.5,-,N/A,,Overcast,150,2013-01-12 11:53:00
6:33 AM,60.8,59.0,94,30.14,9.0,Calm,Calm,-,N/A,,Scattered Clouds,0,2013-01-12 12:33:00
6:53 AM,59.0,59.0,100,30.14,4.0,Calm,Calm,-,0.01,,Clear,0,2013-01-12 12:53:00
7:13 AM,59.0,59.0,100,30.14,2.5,Calm,Calm,-,N/A,,Clear,0,2013-01-12 13:13:00
7:20 AM,60.8,59.0,94,30.14,6.0,Calm,Calm,-,N/A,,Clear,0,2013-01-12 13:20:00
7:53 AM,61.0,60.1,97,30.15,9.0,Calm,Calm,-,N/A,,Clear,0,2013-01-12 13:53:00
8:53 AM,64.9,61.0,87,30.17,10.0,South,4.6,-,N/A,,Clear,180,2013-01-12 14:53:00
9:53 AM,71.1,64.0,78,30.17,10.0,SSE,9.2,-,N/A,,Clear,150,2013-01-12 15:53:00
10:53 AM,73.9,63.0,68,30.14,10.0,South,8.1,-,N/A,,Partly Cloudy,170,2013-01-12 16:53:00
11:15 AM,77.0,62.6,61,30.13,10.0,South,8.1,-,N/A,,Mostly Cloudy,170,2013-01-12 17:15:00
11:23 AM,77.0,62.6,61,30.13,10.0,SSW,10.4,-,N/A,,Scattered Clouds,200,2013-01-12 17:23:00
11:53 AM,78.1,61.0,56,30.12,10.0,South,8.1,-,N/A,,Scattered Clouds,180,2013-01-12 17:53:00
12:53 PM,77.0,59.0,54,30.09,10.0,South,9.2,-,N/A,,Scattered Clouds,190,2013-01-12 18:53:00
1:53 PM,78.1,59.0,52,30.09,10.0,South,8.1,-,N/A,,Partly Cloudy,170,2013-01-12 19:53:00
2:53 PM,77.0,59.0,54,30.08,10.0,South,9.2,-,N/A,,Mostly Cloudy,170,2013-01-12 20:53:00
3:53 PM,77.0,60.1,56,30.06,10.0,Variable,5.8,-,N/A,,Scattered Clouds,0,2013-01-12 21:53:00
4:53 PM,73.9,61.0,64,30.07,10.0,SSE,4.6,-,N/A,,Mostly Cloudy,150,2013-01-12 22:53:00
5:53 PM,72.0,62.1,71,30.07,10.0,SE,5.8,-,N/A,,Clear,140,2013-01-12 23:53:00
7:53 PM,69.1,64.0,84,30.08,10.0,SSE,5.8,-,N/A,,Mostly Cloudy,160,2013-01-13 01:53:00
8:53 PM,68.0,64.0,87,30.07,10.0,South,3.5,-,N/A,,Partly Cloudy,170,2013-01-13 02:53:00
9:12 PM,68.0,64.4,88,30.08,10.0,South,4.6,-,N/A,,Mostly Cloudy,170,2013-01-13 03:12:00
9:36 PM,68.0,64.4,88,30.08,10.0,SSE,4.6,-,N/A,,Overcast,160,2013-01-13 03:36:00
9:53 PM,68.0,64.9,90,30.08,10.0,South,4.6,-,N/A,,Overcast,180,2013-01-13 03:53:00
10:53 PM,68.0,64.9,90,30.06,10.0,SSE,6.9,-,N/A,,Overcast,150,2013-01-13 04:53:00
11:15 PM,66.2,64.4,94,30.06,10.0,SSE,4.6,-,N/A,,Scattered Clouds,160,2013-01-13 05:15:00
11:53 PM,66.0,64.0,93,30.05,10.0,SSE,4.6,-,N/A,,Partly Cloudy,160,2013-01-13 05:53:00